McConnell AFB, KS

6:33 AM CDT on March 24, 2017 (GMT -0500)
McConnell Air Force Base

Weather History for KIAB - October, 2013

Change the Weather History Date:

Sunday, October 20, 2013

  Actual Average Record
Temperature  
Mean Temperature 54 °F -  
Max Temperature 70 °F 66 °F 87 °F (2003)
Min Temperature 39 °F 46 °F 30 °F (2011)
Degree Days  
Heating Degree Days 10    
Growing Degree Days 4 (Base 50)    
Moisture  
Dew Point 43 °F    
Average Humidity 69    
Maximum Humidity 97    
Minimum Humidity 37    
Precipitation  
Precipitation 0.00 in - - ()
Sea Level Pressure  
Sea Level Pressure 29.89 in    
Wind  
Wind Speed 9 mph (South)    
Max Wind Speed 16 mph    
Max Gust Speed 23 mph    
Visibility 10 miles    
Events      
Averages and records for this station are not official NWS values.
T = Trace of Precipitation, MM = Missing Value Source: NWS Daily Summary

Daily Weather History Graph

Daily Weather History Graph

Search for Another Location

Airport or City:

Trip Planner

Search our weather history database for the weather conditions in past years. The results will help you decide how hot, cold, wet, or windy it might be!

Date:

Astronomy

Oct. 20, 2013 Rise Set
Actual Time 7:42 AM CDT 6:44 PM CDT
Civil Twilight 7:15 AM CDT 7:11 PM CDT
Nautical Twilight 6:45 AM CDT 7:41 PM CDT
Astronomical Twilight 6:14 AM CDT 8:11 PM CDT
Moon 7:56 PM CDT (10/20) 9:19 AM CDT (10/20)
Length of Visible Light 11h 55m
Length of Day
11h 02m
Full, 97% of the Moon is Illuminated
Oct 20
Full
Oct 26
Last Quarter
Nov 3
New
Nov 9
First Quarter
Nov 17
Full

Hourly Weather History & Observations

Time (CDT) Temp. Windchill Dew Point Humidity Pressure Visibility Wind Dir Wind Speed Gust Speed Precip Events Conditions
12:58 AM 46.0 °F 41.9 °F 43.2 °F 90% 29.94 in 10.0 mi South 8.1 mph - N/A   Clear
1:58 AM 44.6 °F 39.7 °F 42.8 °F 93% 29.93 in 10.0 mi South 9.2 mph - N/A   Clear
2:58 AM 43.0 °F 38.2 °F 40.8 °F 92% 29.93 in 10.0 mi South 8.1 mph - N/A   Clear
3:58 AM 41.5 °F 35.9 °F 39.9 °F 94% 29.91 in 10.0 mi South 9.2 mph - N/A   Clear
4:58 AM 43.7 °F 38.1 °F 40.1 °F 87% 29.89 in 10.0 mi South 10.4 mph - N/A   Clear
5:58 AM 42.1 °F 37.1 °F 39.4 °F 90% 29.90 in 10.0 mi South 8.1 mph - N/A   Clear
6:58 AM 39.4 °F 34.5 °F 38.7 °F 97% 29.91 in 10.0 mi South 6.9 mph - N/A   Clear
7:58 AM 39.9 °F 35.8 °F 38.7 °F 95% 29.91 in 10.0 mi South 5.8 mph - N/A   Clear
8:58 AM 45.0 °F 39.3 °F 42.1 °F 90% 29.91 in 10.0 mi South 11.5 mph - N/A   Clear
9:58 AM 50.7 °F - 42.4 °F 73% 29.91 in 10.0 mi South 8.1 mph - N/A   Clear
10:58 AM 57.6 °F - 41.2 °F 54% 29.90 in 10.0 mi SSW 13.8 mph - N/A   Clear
11:58 AM 62.8 °F - 42.1 °F 47% 29.87 in 10.0 mi SSW 13.8 mph 19.6 mph N/A   Clear
12:58 PM 66.9 °F - 41.2 °F 39% 29.86 in 10.0 mi SSW 16.1 mph 20.7 mph N/A   Clear
1:58 PM 68.5 °F - 43.5 °F 40% 29.83 in 10.0 mi South 15.0 mph 23.0 mph N/A   Clear
2:58 PM 70.0 °F - 44.2 °F 40% 29.82 in 10.0 mi South 11.5 mph - N/A   Clear
3:58 PM 70.2 °F - 43.0 °F 37% 29.81 in 10.0 mi SW 13.8 mph - N/A   Clear
4:58 PM 69.8 °F - 43.2 °F 38% 29.82 in 10.0 mi SW 11.5 mph - N/A   Clear
5:58 PM 66.9 °F - 44.4 °F 44% 29.83 in 10.0 mi SSW 6.9 mph - N/A   Clear
6:58 PM 63.9 °F - 44.6 °F 50% 29.87 in 10.0 mi SW 4.6 mph - N/A   Partly Cloudy
7:55 PM 59.5 °F - 47.1 °F 63% 29.89 in 10.0 mi SE 3.5 mph - N/A   Clear
8:58 PM 55.9 °F - 49.5 °F 79% 29.92 in 10.0 mi North 8.1 mph - N/A   Clear
9:58 PM 54.3 °F - 45.7 °F 73% 29.94 in 10.0 mi NNE 8.1 mph - N/A   Clear
10:58 PM 54.0 °F - 44.8 °F 71% 29.96 in 10.0 mi NE 10.4 mph - N/A   Clear
11:58 PM 52.9 °F - 44.8 °F 74% 29.97 in 10.0 mi NE 6.9 mph - N/A   Scattered Clouds